AirNav   Air Wisconsin pilot careers
 
 450 users online  

66KY Mc Grew Airport
Clarkson, Kentucky, USA

GOING TO CLARKSON?


FAA INFORMATION EFFECTIVE 31 JANUARY 2019

Location

FAA Identifier: 66KY
Lat/Long: 37-30-27.2010N / 086-12-19.8990W
37-30.453350N / 086-12.331650W
37.5075558 / -86.2055275
(estimated)
Elevation: 720 ft. / 219 m (estimated)
Variation: 01W (1985)
From city: 1 mile NE of CLARKSON, KY
Time zone: UTC -6 (UTC -5 during Daylight Saving Time)
Zip code: 42726

Airport Operations

Airport use: Private use. Permission required prior to landing
Activation date: 08/1985
Control tower: no
ARTCC: INDIANAPOLIS CENTER
FSS: LOUISVILLE FLIGHT SERVICE STATION
Attendance: UNATNDD
Wind indicator: yes
Segmented circle: no

Airport Communications

WX AWOS-3 at EKX (17 nm NE): 121.025 (270-763-6433)

Nearby radio navigation aids

VOR radial/distance  VOR name  Freq  Var
MYSr176/(23.3)MYSTIC VOR108.2001W
EWOr253/26.3NEW HOPE VOR/DME110.8001E
FTKr206/26.4FORT KNOX VOR/DME109.6001W
BWGr016/36.5BOWLING GREEN VORTAC117.9002E

 
NDB name  Hdg/Dist  Freq  Var  ID
GODMAN205/29.239603WGOI --. --- ..

Airport Services

Runway Information

Runway 10/28

Dimensions: 2400 x 150 ft. / 732 x 46 m
Surface: turf
RUNWAY 10  RUNWAY 28
Traffic pattern: leftleft
Obstructions: 30 ft. trees30 ft. trees

Airport Ownership and Management from official FAA records

Ownership: Privately-owned
Owner: ROBERT MC GREW
RT 3, BOX 186
CLARKSON, KY 42726
Phone 502-242-7378

Airport Operational Statistics

Aircraft based on the field: 6
Single engine airplanes: 4
Ultralights: 2
    

Instrument Procedures

There are no published instrument procedures at 66KY.

Some nearby airports with instrument procedures:

KEKX - Addington Field Airport (17 nm NE)
KFTK - Godman Army Airfield (26 nm NE)
KJQD - Ohio County Airport (31 nm W)
KGLW - Glasgow Municipal Airport (31 nm SE)
KBWG - Bowling Green-Warren County Regional Airport (34 nm S)
 
Loc | Ops | Rwys | IFR | FBO | Links
Com | Nav | Svcs | Stats | Notes
Area around 66KY (Mc Grew Airport)
 
Road maps at: MapQuest Bing Google
 
Aerial photo
No photo
 
Sectional chart

 
Airport distance calculator
Flying to Mc Grew Airport? Find the distance to fly.

From to 66KY

Sunrise and sunset
Times for 24-Feb-2019
 Local
(UTC-6)
 Zulu
(UTC)
Morning civil twilight05:5811:58
Sunrise06:2412:24
Sunset17:3223:32
Evening civil twilight17:5923:59

Current date and time
Zulu (UTC)  24-Feb-2019 06:46:27
Local (UTC-6)  24-Feb-2019 00:46:27
 
METAR
KEKX 
20nm NE 
240635Z AUTO 23014G22KT 10SM SCT021 BKN026 OVC065 16/15 A2959 RMK AO2 T01550146
KFTK 
25nm NE 
240556Z AUTO 21011KT 10SM M 16/16 A2958 RMK AO2 SLP018 60015 T01590159 10159 20134 56021 CHINO RWY36 $
KGLW 
31nm SE 
240635Z AUTO 20010G17KT 10SM SCT016 BKN041 OVC080 17/16 A2961 RMK AO2 T01670160
KBWG 
34nm S 
240611Z AUTO 25018G31KT 10SM FEW025 BKN039 18/12 A2964 RMK AO2 PK WND 26031/0605 WSHFT 0551 T01780117
KBRY 
38nm NE 
240635Z AUTO 23014G23KT 7SM SCT007 BKN015 OVC050 15/13 A2957 RMK AO1
TAF
KFTK 
25nm NE 
240235Z 2402/2507 13006KT 4800 -RA BKN008 OVC015 530015 QNH2964INS TEMPO 2402/2405 12012G18KT -TSRA OVC008CB BECMG 2404/2405 21015G20KT 9000 -RA BKN020 OVC040 520103 QNH2959INS BECMG 2407/2408 22015G20KT 9999 NSW SCT060 520103 QNH2959INS BECMG 2411/2412 23025G35KT 9999 BKN025 620253 520003 QNH2972INS TEMPO 2412/2416 25035G45KT BECMG 2422/2423 26010G15KT 9999 SKC 510102 QNH3008INS TX15/2403Z TN01/2500Z
NOTAMs
Click for the latest NOTAMs
NOTAMs are issued by the DoD/FAA and will open in a separate window not controlled by AirNav.

 

 
 

Would you like to see your business listed on this page?

 If your business provides an interesting product or service to pilots, flight crews, aircraft, or users of the Mc Grew Airport, you should consider listing it here.  To start the listing process, click on the button below
 
Add a business
 

Other Pages about Mc Grew Airport

Update a link
 
Copyright © AirNav, LLC. All rights reserved. Privacy Policy  Contact